FW7761 Weather Reports


Display with metric or nautical units.
time (UTC)temp
F
wind
direction
speed
MPH
gust
MPH
rain 1hr
in
rain 24hr
in
rain mn
in
humidity
%
barometer
mb
20260508060519 46 71 4.0 6.0 0.00 0.24 0.00 96 1013.6
20260508055532 46 66 4.0 6.0 0.00 0.24 0.00 96 1013.6
20260508054525 45 76 2.0 3.0 0.00 0.24 0.00 96 1013.6
20260508053520 46 94 1.0 2.0 0.00 0.24 0.00 96 1013.5
20260508052534 46 94 2.0 3.0 0.00 0.24 0.00 96 1013.4
20260508051529 46 90 1.0 2.0 0.00 0.24 0.00 96 1013.2
20260508050524 46 110 1.0 2.0 0.00 0.24 0.00 96 1013.0
20260508045516 46 92 1.0 3.0 0.00 0.24 0.00 96 1012.7
20260508044532 46 68 4.0 6.0 0.00 0.24 0.00 95 1012.7
20260508043526 46 65 5.0 7.0 0.00 0.24 0.00 95 1012.6
20260508042521 46 77 2.0 3.0 0.00 0.24 0.00 95 1012.8
20260508041534 46 80 1.0 3.0 0.00 0.24 0.00 95 1012.7
20260508040530 46 95 2.0 3.0 0.00 0.24 0.00 95 1012.7
20260508035523 47 97 4.0 7.0 0.00 0.24 0.00 95 1012.7
20260508034517 45 108 4.0 7.0 0.00 0.24 0.00 96 1012.9
20260508033532 43 0.0 0.0 0.00 0.24 0.00 95 1012.9
20260508032526 42 0.0 0.0 0.00 0.24 0.00 95 1013.0
20260508031522 42 54 1.0 2.0 0.00 0.24 0.00 95 1012.6
20260508030535 42 59 0.0 2.0 0.00 0.24 0.00 95 1012.6
20260508025531 42 80 2.0 4.0 0.00 0.24 0.00 95 1012.7
20260508024524 42 68 6.0 8.0 0.00 0.24 0.00 95 1012.7
20260508023537 43 74 4.0 7.0 0.00 0.24 0.00 95 1012.8
20260508022533 42 85 3.0 4.0 0.00 0.24 0.00 95 1013.0
20260508021526 42 100 1.0 2.0 0.00 0.24 0.00 95 1013.2
20260508020520 43 113 1.0 2.0 0.00 0.24 0.00 95 1013.3
20260508015535 43 88 1.0 2.0 0.00 0.24 0.00 95 1013.2
20260508014529 42 0.0 0.0 0.00 0.24 0.00 95 1013.2
20260508013522 43 72 1.0 3.0 0.00 0.24 0.00 95 1013.2
20260508012518 42 70 2.0 3.0 0.00 0.24 0.00 95 1013.2
20260508011533 41 76 0.0 2.0 0.00 0.24 0.00 95 1013.4
20260508010526 42 76 1.0 3.0 0.00 0.24 0.00 95 1013.5
20260508005521 41 107 0.0 1.0 0.00 0.24 0.00 94 1013.5
20260508004534 42 0.0 0.0 0.00 0.24 0.00 94 1013.6
20260508003609 43 99 0.0 1.0 0.00 0.24 0.00 94 1013.8
20260508002523 43 0.0 0.0 0.00 0.24 0.00 94 1014.0
20260508001539 43 0.0 0.0 0.00 0.24 0.00 94 1014.1
20260508000532 43 0.0 0.0 0.00 0.24 0.00 94 1014.4
20260507235548 43 0.0 0.0 0.00 0.24 0.00 94 1014.3
20260507234521 43 0.0 0.0 0.00 0.24 0.00 94 1014.3
20260507233556 43 71 1.0 3.0 0.00 0.24 0.00 94 1014.4
20260507232530 43 73 2.0 4.0 0.00 0.24 0.00 94 1014.4
20260507231524 43 70 4.0 6.0 0.00 0.24 0.00 94 1014.4
20260507230518 43 65 1.0 3.0 0.00 0.24 0.00 94 1014.7
20260507225558 42 0.0 0.0 0.00 0.24 0.00 93 1014.8
20260507224527 43 0.0 0.0 0.00 0.24 0.00 93 1014.8
20260507223521 43 0.0 0.0 0.00 0.24 0.00 93 1014.9
20260507222536 44 0.0 0.0 0.00 0.24 0.00 93 1014.9
20260507221529 44 66 2.0 4.0 0.00 0.24 0.00 93 1014.9
20260507220524 45 61 3.0 6.0 0.00 0.24 0.00 93 1014.9
20260507215518 45 77 4.0 6.0 0.00 0.24 0.24 93 1014.8
20260507214534 44 62 1.0 3.0 0.00 0.24 0.24 93 1015.0
20260507213527 45 67 5.0 8.0 0.00 0.24 0.24 93 1014.9
20260507212605 46 85 1.0 4.0 0.00 0.24 0.24 93 1014.9
20260507211517 46 67 2.0 3.0 0.00 0.24 0.24 93 1014.9
20260507210533 45 66 1.0 3.0 0.00 0.24 0.24 92 1014.8
20260507205526 46 91 1.0 1.0 0.00 0.24 0.24 92 1014.6
20260507204521 46 101 0.0 1.0 0.00 0.24 0.24 91 1014.5
20260507203535 46 0.0 0.0 0.00 0.24 0.24 91 1014.3
20260507202529 47 99 1.0 1.0 0.00 0.24 0.24 91 1014.1
20260507201523 47 107 1.0 2.0 0.00 0.24 0.24 90 1013.9
20260507200518 47 124 1.0 2.0 0.00 0.24 0.24 89 1013.7
20260507195533 48 109 2.0 4.0 0.00 0.24 0.24 88 1013.4
20260507194529 48 103 2.0 4.0 0.00 0.24 0.24 88 1013.3
20260507193522 48 106 3.0 6.0 0.00 0.24 0.24 88 1013.0
20260507192516 49 115 3.0 4.0 0.00 0.24 0.24 87 1013.0
20260507191532 50 107 2.0 3.0 0.00 0.24 0.24 86 1012.9
20260507190525 50 105 3.0 6.0 0.00 0.24 0.24 85 1012.8
20260507185519 51 103 3.0 6.0 0.00 0.24 0.24 83 1012.6
20260507184534 52 106 4.0 7.0 0.00 0.24 0.24 81 1012.5
20260507183529 53 121 4.0 7.0 0.00 0.24 0.24 78 1012.5
20260507182522 53 113 4.0 8.0 0.00 0.24 0.24 80 1012.5
20260507181517 53 97 6.0 10.0 0.00 0.24 0.24 80 1012.4
20260507180554 53 106 4.0 9.0 0.00 0.24 0.24 80 1012.5
20260507175526 53 98 5.0 10.0 0.00 0.24 0.24 80 1012.6
20260507174521 53 100 4.0 8.0 0.00 0.24 0.24 81 1012.5
20260507173555 52 105 4.0 7.0 0.00 0.24 0.24 82 1012.6
20260507172529 52 115 3.0 6.0 0.00 0.24 0.24 82 1012.9
20260507171523 52 104 3.0 6.0 0.00 0.24 0.24 82 1012.8
20260507170519 52 101 3.0 8.0 0.00 0.24 0.24 82 1012.9
20260507165534 52 88 3.0 6.0 0.00 0.24 0.24 82 1012.9
20260507164526 51 105 3.0 6.0 0.00 0.24 0.24 82 1012.9
20260507163521 51 107 5.0 8.0 0.00 0.24 0.24 81 1013.1
20260507162534 51 92 4.0 7.0 0.00 0.24 0.24 83 1013.0
20260507161550 51 111 5.0 9.0 0.00 0.24 0.24 82 1012.8
20260507160522 51 109 5.0 9.0 0.00 0.24 0.24 83 1012.5
20260507155518 51 97 8.0 14.0 0.00 0.24 0.24 85 1012.4
20260507154531 50 103 7.0 10.0 0.00 0.24 0.24 87 1012.5
20260507153525 50 87 6.0 11.0 0.00 0.24 0.24 90 1012.5
20260507152519 49 74 7.0 11.0 0.01 0.24 0.24 90 1012.6
20260507151533 49 72 9.0 17.0 0.03 0.24 0.24 90 1012.4
20260507150527 49 75 8.0 16.0 0.05 0.24 0.24 90 1012.3
20260507145602 49 81 8.0 15.0 0.09 0.24 0.24 90 1012.4
20260507144535 49 71 10.0 18.0 0.19 0.24 0.24 91 1012.4
20260507143529 49 70 8.0 16.0 0.23 0.24 0.24 92 1012.7
20260507142523 49 68 12.0 16.0 0.22 0.23 0.23 92 1012.9
20260507141518 49 70 7.0 10.0 0.20 0.21 0.21 91 1013.4
20260507140525 49 70 3.0 4.0 0.18 0.19 0.19 90 1013.9
20260507135527 50 0 1.0 2.0 0.14 0.15 0.15 88 1013.9
20260507134540 50 352 0.0 2.0 0.04 0.05 0.05 87 1013.9
20260507133535 50 50 3.0 7.0 0.01 0.01 0.01 86 1013.7
20260507132529 50 74 6.0 9.0 0.01 0.01 0.01 86 1013.8
20260507131543 50 6 3.0 6.0 0.01 0.01 0.01 85 1013.8
20260507130518 50 326 4.0 11.0 0.01 0.01 0.01 86 1013.5
20260507125530 50 295 6.0 15.0 0.01 0.01 0.01 85 1013.2
20260507124526 51 276 9.0 15.0 0.01 0.01 0.01 82 1013.1
20260507123520 52 283 12.0 19.0 0.00 0.00 0.00 77 1013.0
20260507122535 57 272 13.0 24.0 0.00 0.00 0.00 74 1013.0
20260507121528 58 290 2.0 4.0 0.00 0.00 0.00 68 1013.0
20260507120523 59 225 1.0 4.0 0.00 0.00 0.00 68 1013.2
20260507115538 57 193 0.0 1.0 0.00 0.00 0.00 69 1013.3
20260507114552 57 208 2.0 4.0 0.00 0.00 0.00 72 1013.3
20260507113546 57 172 2.0 3.0 0.00 0.00 0.00 69 1013.5
20260507112520 57 117 3.0 7.0 0.00 0.00 0.00 68 1013.6
20260507111535 57 121 5.0 10.0 0.00 0.00 0.00 66 1013.6
20260507110529 57 109 7.0 11.0 0.00 0.00 0.00 66 1013.6
20260507105525 57 128 6.0 11.0 0.00 0.00 0.00 64 1013.7
20260507104517 58 126 6.0 10.0 0.00 0.00 0.00 65 1013.6
20260507103531 58 121 7.0 13.0 0.00 0.00 0.00 64 1013.7
20260507102547 58 115 8.0 14.0 0.00 0.00 0.00 64 1013.7
20260507101540 57 105 8.0 14.0 0.00 0.00 0.00 65 1013.7
20260507100534 56 104 5.0 11.0 0.00 0.00 0.00 67 1013.8
20260507095531 57 109 8.0 15.0 0.00 0.00 0.00 66 1013.8
20260507094523 55 136 6.0 11.0 0.00 0.00 0.00 69 1014.0
20260507093517 54 127 6.0 10.0 0.00 0.00 0.00 72 1014.0
20260507092531 54 119 6.0 11.0 0.00 0.00 0.00 73 1013.7
20260507091546 54 101 6.0 14.0 0.00 0.00 0.00 75 1013.3
20260507090519 53 96 7.0 13.0 0.00 0.00 0.00 76 1013.2
20260507085533 53 97 9.0 15.0 0.00 0.00 0.00 76 1013.1
20260507084528 52 87 9.0 17.0 0.00 0.00 0.00 78 1013.1
20260507083523 51 119 9.0 15.0 0.00 0.00 0.00 81 1013.0
20260507082517 50 122 11.0 17.0 0.00 0.00 0.00 82 1012.6
20260507081551 50 107 11.0 19.0 0.00 0.00 0.00 82 1012.4
20260507080524 51 98 10.0 17.0 0.00 0.00 0.00 78 1012.6
20260507075519 51 93 11.0 17.0 0.00 0.00 0.00 79 1012.9
20260507074554 52 117 8.0 14.0 0.00 0.00 0.00 78 1013.1
20260507073527 53 113 7.0 10.0 0.00 0.00 0.00 75 1013.3
20260507072603 52 109 7.0 13.0 0.00 0.00 0.00 74 1013.3
20260507071535 52 105 5.0 9.0 0.00 0.00 0.00 76 1013.2
20260507070529 52 107 4.0 10.0 0.00 0.00 0.00 77 1013.2
20260507065523 52 111 4.0 7.0 0.00 0.00 0.00 78 1013.3
20260507064517 52 104 3.0 7.0 0.00 0.00 0.00 78 1013.3
20260507063531 51 87 3.0 7.0 0.00 0.00 0.00 80 1013.1
20260507062525 50 67 3.0 4.0 0.00 0.00 0.00 80 1013.1
20260507061603 50 92 2.0 4.0 0.00 0.00 0.00 80 1013.1